User: anonymous   Login
Location: Unspecified
(0.0000°N, 0.0000°E)
Time: 10:18:06
(UTC+00:00)
Language:

Nadezhda 5 - Orbit

View from above orbital plane
View from above orbital plane
View from above satellite
View from above satellite

Ground track
Ground track

The orbit data is extracted from the following two-line orbital elements,

1 25567U 98072A   17294.92995524 +.00000023 +00000-0 +88799-5 0  9990
2 25567 082.9464 255.0766 0024566 236.4128 176.3922 13.71827270944364
Epoch (UTC): 21 October 2017 22:19:08
Eccentricity: 0.0024566
inclination: 82.9464°
perigee height: 975 km
apogee height: 1011 km
right ascension of ascending node: 255.0766°
argument of perigee: 236.4128°
revolutions per day: 13.71827270
mean anomaly at epoch: 176.3922°
orbit number at epoch: 94436

The dashed part of the orbit path shows where the satellite is in the earth's shadow,  

DLR